Location: Hilton Head Island
(32.2163°N, 80.7526°W)
Time: 15:41:37
(UTC-05:00)

Explorer 11/Cluster Stage 4 - Pass Details

Date: 22 February 2026
Orbit: 463 x 1176 km, 28.8° (Epoch: 6 March)

Event Time Altitude Azimuth Distance (km) Brightness Sun altitude
Rises 11:27:54 0° 246° (WSW) 3,427 9.9 44.7°
Reaches altitude 10° 11:30:48 10° 240° (WSW) 2,361 9.2 44.9°
Maximum altitude 11:36:01 44° 170° (S) 948 9.7 45.4°
Drops below altitude 10° 11:40:18 10° 98° (E) 1,935 9.0 45.7°
Sets 11:42:28 0° 91° (E) 2,745 9.6 45.8°
